Weather History for KPGD - December, 2012

Change the Weather History Date:

Thursday, December 20, 2012

  Actual Average (KFMY) Record (KFMY)
Temperature  
Mean Temperature 68 °F 66 °F  
Max Temperature 82 °F 76 °F 87 °F (1990)
Min Temperature 54 °F 56 °F 33 °F (1981)
Degree Days  
Heating Degree Days 0 3  
Month to date heating degree days 38  
Since 1 July heating degree days 56  
Cooling Degree Days 3 4  
Month to date cooling degree days 87  
Year to date cooling degree days 3950  
Growing Degree Days 18 (Base 50)    
Moisture  
Dew Point 62 °F    
Average Humidity 78    
Maximum Humidity 100    
Minimum Humidity 46    
Precipitation  
Precipitation 0.00 in 0.06 in 1.04 in (1925)
Month to date precipitation 1.03  
Year to date precipitation 55.25  
Sea Level Pressure  
Sea Level Pressure 30.05 in    
Wind  
Wind Speed 7 mph (South)    
Max Wind Speed 16 mph    
Max Gust Speed 23 mph    
Visibility 10 miles    
Events      
T = Trace of Precipitation, MM = Missing Value Source: NWS Daily Summary

Daily Weather History Graph

Daily Weather History Graph

Search for Another Location

Airport or City:

Trip Planner

Search our weather history database for the weather conditions in past years. The results will help you decide how hot, cold, wet, or windy it might be!

Date:

Astronomy

Dec. 20, 2012 Rise Set
Actual Time 7:12 AM EST 5:39 PM EST
Civil Twilight 6:46 AM EST 6:04 PM EST
Nautical Twilight 6:17 AM EST 6:33 PM EST
Astronomical Twilight 5:49 AM EST 7:02 PM EST
Moon 12:30 PM EST (12/20) 12:26 AM EST (12/20)
Length of Visible Light 11h 17m
Length of Day
10h 26m
First Quarter, 55% of the Moon is Illuminated
Dec 20
First Quarter
Dec 28
Full
Jan 4
Last Quarter
Jan 11
New
Jan 18
First Quarter

Hourly Weather History & Observations

Time (EST) Temp. Heat Index Dew Point Humidity Pressure Visibility Wind Dir Wind Speed Gust Speed Precip Events Conditions
12:53 AM 54.0 °F - 50.0 °F 86% 30.09 in 10.0 mi East 3.5 mph - N/A   Clear
1:53 AM 55.0 °F - 51.1 °F 86% 30.09 in 10.0 mi ESE 3.5 mph - N/A   Clear
2:53 AM 57.9 °F - 54.0 °F 87% 30.08 in 10.0 mi SE 5.8 mph - N/A   Clear
3:53 AM 59.0 °F - 55.9 °F 90% 30.08 in 10.0 mi SE 5.8 mph - N/A   Clear
4:53 AM 60.1 °F - 57.9 °F 93% 30.07 in 10.0 mi SE 3.5 mph - N/A   Clear
5:53 AM 60.1 °F - 57.9 °F 93% 30.08 in 9.0 mi SE 4.6 mph - N/A   Clear
6:53 AM 60.1 °F - 59.0 °F 96% 30.08 in 6.0 mi ESE 5.8 mph - N/A   Clear
7:53 AM 61.0 °F - 61.0 °F 100% 30.09 in 3.0 mi ESE 4.6 mph - N/A   Clear
8:53 AM 68.0 °F - 64.0 °F 87% 30.11 in 10.0 mi SE 5.8 mph - N/A   Clear
9:53 AM 75.0 °F - 64.0 °F 69% 30.12 in 10.0 mi SSE 9.2 mph - N/A   Unknown
10:53 AM 79.0 °F - 64.0 °F 60% 30.11 in 10.0 mi South 11.5 mph - N/A   Unknown
11:53 AM 81.0 °F 82.5 °F 64.0 °F 56% 30.08 in 10.0 mi North - - N/A   Clear
12:53 PM 82.9 °F 84.0 °F 63.0 °F 51% 30.03 in 10.0 mi South 12.7 mph - N/A   Clear
1:53 PM 82.9 °F 83.2 °F 60.1 °F 46% 30.00 in 10.0 mi South 16.1 mph - N/A   Clear
2:53 PM 82.9 °F 83.2 °F 60.1 °F 46% 29.99 in 10.0 mi SSW 15.0 mph - N/A   Clear
3:53 PM 81.0 °F 82.5 °F 64.0 °F 56% 30.00 in 10.0 mi SSW 16.1 mph 20.7 mph N/A   Clear
4:53 PM 78.1 °F - 64.0 °F 62% 29.99 in 10.0 mi SSW 16.1 mph 23.0 mph N/A   Clear
5:53 PM 73.9 °F - 64.0 °F 71% 30.01 in 10.0 mi SSW 9.2 mph - N/A   Clear
6:15 PM 73.4 °F - 64.4 °F 73% 30.02 in 10.0 mi SW 5.8 mph - N/A   Partly Cloudy
6:53 PM 72.0 °F - 64.9 °F 78% 30.02 in 10.0 mi SSW 6.9 mph - N/A   Clear
7:53 PM 70.0 °F - 66.0 °F 87% 30.04 in 10.0 mi SSW 5.8 mph - N/A   Clear
8:53 PM 70.0 °F - 66.9 °F 90% 30.03 in 10.0 mi SSW 6.9 mph - N/A   Partly Cloudy
9:53 PM 70.0 °F - 66.9 °F 90% 30.03 in 10.0 mi South 8.1 mph - N/A   Clear
10:53 PM 71.1 °F - 66.9 °F 87% 30.03 in 10.0 mi SSW 8.1 mph - N/A   Mostly Cloudy
11:17 PM 71.6 °F - 66.2 °F 83% 30.03 in 10.0 mi SSW 8.1 mph - N/A   Mostly Cloudy
11:30 PM 71.6 °F - 66.2 °F 83% 30.02 in 10.0 mi SSW 11.5 mph - N/A   Mostly Cloudy
11:53 PM 72.0 °F - 68.0 °F 87% 30.03 in 10.0 mi SSW 11.5 mph - N/A   Scattered Clouds